,,,PA_Meas_PMT16A,,PR_Meas_QMR101_102,,RH_Meas_QMH101,,SR_Meas_QMS101,,TA_Meas_QMH101,,GenWind,,GenWind,
date,time,status,PA,status,PR,status,RH,status,SR,status,TA,status,DirAvg,status,SpdAvg,
2009-04-06, 00:00:05,VALID,1009.81,VALID,0,VALID,86.4837,VALID,0.105969,VALID,24.1014,VALID,73,VALID,0,
2009-04-06, 00:01:05,VALID,1009.81,VALID,0,VALID,86.4837,VALID,0.105969,VALID,24.1014,VALID,73,VALID,0,
2009-04-06, 00:02:05,VALID,1009.76,VALID,0,VALID,86.5065,VALID,0,VALID,24.1404,VALID,73,VALID,0,
2009-04-06, 00:03:05,VALID,1009.73,VALID,0,VALID,86.4989,VALID,0.105969,VALID,24.1014,VALID,73,VALID,0,
2009-04-06, 00:04:05,VALID,1009.71,VALID,0,VALID,86.4989,VALID,0,VALID,24.1209,VALID,68,VALID,0.175781,
2009-04-06, 00:05:05,VALID,1009.67,VALID,0,VALID,86.4684,VALID,0,VALID,24.1209,VALID,67,VALID,0.357422,
2009-04-06, 00:06:05,VALID,1009.65,VALID,0,VALID,86.476,VALID,0.105969,VALID,24.1014,VALID,57,VALID,0.396484,
2009-04-06, 00:07:05,VALID,1009.62,VALID,0,VALID,86.4379,VALID,0,VALID,24.1227,VALID,55,VALID,0,
2009-04-06, 00:08:05,VALID,1009.56,VALID,0,VALID,86.4684,VALID,0.105969,VALID,24.1227,VALID,55,VALID,0,
2009-04-06, 00:09:05,VALID,1009.53,VALID,0,VALID,86.4455,VALID,0.105969,VALID,24.1014,VALID,59,VALID,0,
2009-04-06, 00:10:05,VALID,1009.49,VALID,0,VALID,86.4455,VALID,0.105969,VALID,24.1014,VALID,59,VALID,0,
2009-04-06, 00:11:05,VALID,1009.48,VALID,0,VALID,86.4303,VALID,0.105969,VALID,24.0819,VALID,12,VALID,0.395312,
2009-04-06, 00:12:05,VALID,1009.46,VALID,0,VALID,86.4303,VALID,0.105969,VALID,24.0624,VALID,12,VALID,0.109375,
2009-04-06, 00:13:05,VALID,1009.44,VALID,0,VALID,86.4227,VALID,0,VALID,24.1032,VALID,21,VALID,0.209375,
2009-04-06, 00:14:05,VALID,1009.39,VALID,0,VALID,86.4303,VALID,0,VALID,24.0429,VALID,35,VALID,0.251953,
2009-04-06, 00:15:05,VALID,1009.4,VALID,0,VALID,86.4532,VALID,0,VALID,24.0429,VALID,35,VALID,0,
2009-04-06, 00:16:05,VALID,1009.37,VALID,0,VALID,86.4684,VALID,0,VALID,24.0624,VALID,36,VALID,0.318359,
2009-04-06, 00:17:05,VALID,1009.34,VALID,0,VALID,86.4913,VALID,0,VALID,24.0235,VALID,35,VALID,0,
2009-04-06, 00:18:05,VALID,1009.34,VALID,0,VALID,86.5065,VALID,0,VALID,24.0235,VALID,35,VALID,0,
2009-04-06, 00:19:05,VALID,1009.31,VALID,0,VALID,86.5294,VALID,0,VALID,24.0235,VALID,35,VALID,0,
2009-04-06, 00:20:05,VALID,1009.28,VALID,0,VALID,86.5599,VALID,0.105969,VALID,24.004,VALID,35,VALID,0,
2009-04-06, 00:21:05,VALID,1009.23,VALID,0,VALID,86.5752,VALID,0,VALID,24.0235,VALID,35,VALID,0,
2009-04-06, 00:22:05,VALID,1009.21,VALID,0,VALID,86.6057,VALID,0,VALID,24.004,VALID,35,VALID,0,
2009-04-06, 00:23:05,VALID,1009.19,VALID,0,VALID,86.6133,VALID,0.105969,VALID,23.9632,VALID,35,VALID,0,
2009-04-06, 00:24:05,VALID,1009.15,VALID,0,VALID,86.6438,VALID,0,VALID,24.0058,VALID,53,VALID,0.272266,
2009-04-06, 00:25:05,VALID,1009.12,VALID,0,VALID,86.6362,VALID,0,VALID,23.9845,VALID,53,VALID,0,
2009-04-06, 00:26:05,VALID,1009.09,VALID,0,VALID,86.6667,VALID,0,VALID,23.9863,VALID,53,VALID,0,
2009-04-06, 00:27:05,VALID,1009.04,VALID,0,VALID,86.6438,VALID,0,VALID,23.965,VALID,53,VALID,0,
2009-04-06, 00:28:05,VALID,1009.03,VALID,0,VALID,86.6667,VALID,0,VALID,23.9863,VALID,53,VALID,0,
2009-04-06, 00:29:05,VALID,1009,VALID,0,VALID,86.6667,VALID,0,VALID,23.965,VALID,53,VALID,0,
2009-04-06, 00:30:05,VALID,1009.01,VALID,0,VALID,86.6896,VALID,0,VALID,23.9455,VALID,53,VALID,0,
2009-04-06, 00:31:05,VALID,1008.97,VALID,0,VALID,86.7048,VALID,0,VALID,23.9473,VALID,53,VALID,0,
2009-04-06, 00:32:05,VALID,1008.93,VALID,0,VALID,86.7201,VALID,0,VALID,23.9455,VALID,53,VALID,0,
2009-04-06, 00:33:05,VALID,1008.91,VALID,0,VALID,86.7277,VALID,0,VALID,23.9455,VALID,53,VALID,0,
2009-04-06, 00:34:05,VALID,1008.91,VALID,0,VALID,86.7277,VALID,0,VALID,23.926,VALID,53,VALID,0,
2009-04-06, 00:35:05,VALID,1008.86,VALID,0,VALID,86.7429,VALID,0,VALID,23.9473,VALID,53,VALID,0,
2009-04-06, 00:36:05,VALID,1008.8,VALID,0,VALID,86.7506,VALID,0,VALID,23.926,VALID,53,VALID,0,
2009-04-06, 00:37:05,VALID,1008.75,VALID,0,VALID,86.7506,VALID,0,VALID,23.926,VALID,53,VALID,0,
2009-04-06, 00:38:05,VALID,1008.77,VALID,0,VALID,86.7887,VALID,0,VALID,23.926,VALID,53,VALID,0,
2009-04-06, 00:39:05,VALID,1008.71,VALID,0,VALID,86.7734,VALID,0,VALID,23.9278,VALID,53,VALID,0,
2009-04-06, 00:40:05,VALID,1008.72,VALID,0,VALID,86.8116,VALID,0.105969,VALID,23.926,VALID,53,VALID,0,
2009-04-06, 00:41:05,VALID,1008.71,VALID,0,VALID,86.8268,VALID,0.105969,VALID,23.926,VALID,53,VALID,0,
2009-04-06, 00:42:05,VALID,1008.67,VALID,0,VALID,86.8345,VALID,0.105969,VALID,23.926,VALID,53,VALID,0,
2009-04-06, 00:43:05,VALID,1008.66,VALID,0,VALID,86.8421,VALID,0,VALID,23.926,VALID,53,VALID,0,
2009-04-06, 00:44:05,VALID,1008.63,VALID,0,VALID,86.8116,VALID,0.105969,VALID,23.8852,VALID,53,VALID,0,
2009-04-06, 00:45:05,VALID,1008.61,VALID,0,VALID,86.8421,VALID,0,VALID,23.9065,VALID,53,VALID,0,
2009-04-06, 00:46:05,VALID,1008.6,VALID,0,VALID,86.8497,VALID,0.105969,VALID,23.9065,VALID,53,VALID,0,
2009-04-06, 00:47:05,VALID,1008.61,VALID,0,VALID,86.865,VALID,0.105969,VALID,23.9065,VALID,53,VALID,0,
2009-04-06, 00:48:05,VALID,1008.55,VALID,0,VALID,86.8497,VALID,0,VALID,23.8871,VALID,53,VALID,0,
2009-04-06, 00:49:05,VALID,1008.56,VALID,0,VALID,86.8497,VALID,0.105969,VALID,23.8871,VALID,53,VALID,0,
2009-04-06, 00:50:05,VALID,1008.51,VALID,0,VALID,86.8421,VALID,0,VALID,23.8871,VALID,53,VALID,0,
2009-04-06, 00:51:05,VALID,1008.5,VALID,0,VALID,86.865,VALID,0,VALID,23.8871,VALID,53,VALID,0,
2009-04-06, 00:52:05,VALID,1008.47,VALID,0,VALID,86.8573,VALID,0,VALID,23.8871,VALID,53,VALID,0,
2009-04-06, 00:53:05,VALID,1008.46,VALID,0,VALID,86.865,VALID,0,VALID,23.8676,VALID,53,VALID,0,
2009-04-06, 00:54:05,VALID,1008.43,VALID,0,VALID,86.8573,VALID,0,VALID,23.8676,VALID,53,VALID,0,
2009-04-06, 00:55:05,VALID,1008.4,VALID,0,VALID,86.9031,VALID,0,VALID,23.8676,VALID,53,VALID,0,
2009-04-06, 00:56:05,VALID,1008.38,VALID,0,VALID,86.9031,VALID,0,VALID,23.8676,VALID,53,VALID,0,
2009-04-06, 00:57:05,VALID,1008.37,VALID,0,VALID,86.9107,VALID,0,VALID,23.8676,VALID,53,VALID,0,
2009-04-06, 00:58:05,VALID,1008.35,VALID,0,VALID,86.9183,VALID,0,VALID,23.8658,VALID,53,VALID,0,
2009-04-06, 00:59:05,VALID,1008.33,VALID,0,VALID,86.9336,VALID,0.105969,VALID,23.9065,VALID,53,VALID,0,
2009-04-06, 01:00:05,VALID,1008.33,VALID,0,VALID,86.9488,VALID,0,VALID,23.8871,VALID,53,VALID,0,
2009-04-06, 01:01:05,VALID,1008.27,VALID,0,VALID,86.9565,VALID,0.105969,VALID,23.9065,VALID,53,VALID,0,
2009-04-06, 01:02:05,VALID,1008.26,VALID,0,VALID,86.987,VALID,0.105969,VALID,23.8871,VALID,53,VALID,0,
2009-04-06, 01:03:05,VALID,1008.25,VALID,0,VALID,86.9717,VALID,0,VALID,23.8871,VALID,56,VALID,0,
2009-04-06, 01:04:05,VALID,1008.23,VALID,0,VALID,86.9641,VALID,0,VALID,23.9084,VALID,78,VALID,0.363672,
2009-04-06, 01:05:05,VALID,1008.2,VALID,0,VALID,86.9717,VALID,0,VALID,23.8871,VALID,78,VALID,0,
2009-04-06, 01:06:05,VALID,1008.19,VALID,0,VALID,86.9641,VALID,0,VALID,23.9065,VALID,78,VALID,0,
2009-04-06, 01:07:05,VALID,1008.17,VALID,0,VALID,86.9488,VALID,0,VALID,23.9065,VALID,122,VALID,0,
2009-04-06, 01:08:05,VALID,1008.16,VALID,0,VALID,86.9641,VALID,0,VALID,23.9065,VALID,122,VALID,0,
2009-04-06, 01:09:05,VALID,1008.12,VALID,0,VALID,86.9488,VALID,0,VALID,23.9278,VALID,129,VALID,0,
2009-04-06, 01:10:05,VALID,1008.1,VALID,0,VALID,86.9107,VALID,0,VALID,23.8871,VALID,129,VALID,0,
2009-04-06, 01:11:05,VALID,1008.08,VALID,0,VALID,86.9107,VALID,0.105969,VALID,23.9065,VALID,147,VALID,0,
2009-04-06, 01:12:05,VALID,1008.06,VALID,0,VALID,86.9031,VALID,0,VALID,23.8871,VALID,152,VALID,0,
2009-04-06, 01:13:05,VALID,1008.05,VALID,0,VALID,86.8802,VALID,0,VALID,23.8871,VALID,152,VALID,0,
2009-04-06, 01:14:05,VALID,1008.03,VALID,0,VALID,86.8802,VALID,0.105969,VALID,23.8676,VALID,152,VALID,0,
2009-04-06, 01:15:05,VALID,1007.98,VALID,0,VALID,86.8878,VALID,0.105969,VALID,23.8676,VALID,152,VALID,0,
2009-04-06, 01:16:05,VALID,1007.95,VALID,0,VALID,86.9336,VALID,0.105969,VALID,23.8676,VALID,152,VALID,0,
2009-04-06, 01:17:05,VALID,1007.95,VALID,0,VALID,86.926,VALID,0,VALID,23.8676,VALID,152,VALID,0,
2009-04-06, 01:18:05,VALID,1007.89,VALID,0,VALID,86.9183,VALID,0,VALID,23.8481,VALID,152,VALID,0,
2009-04-06, 01:19:05,VALID,1007.85,VALID,0,VALID,86.9412,VALID,0,VALID,23.8676,VALID,152,VALID,0,
2009-04-06, 01:20:05,VALID,1007.86,VALID,0,VALID,86.9565,VALID,0.105969,VALID,23.8676,VALID,152,VALID,0,
2009-04-06, 01:21:04,VALID,1007.85,VALID,0,VALID,86.9565,VALID,0.105969,VALID,23.8676,VALID,152,VALID,0,
2009-04-06, 01:22:04,VALID,1007.84,VALID,0,VALID,86.9641,VALID,0,VALID,23.8481,VALID,152,VALID,0,
2009-04-06, 01:23:04,VALID,1007.85,VALID,0,VALID,86.9793,VALID,0,VALID,23.8481,VALID,152,VALID,0,
2009-04-06, 01:24:04,VALID,1007.83,VALID,0,VALID,86.9946,VALID,0.105969,VALID,23.8481,VALID,152,VALID,0,
2009-04-06, 01:25:04,VALID,1007.79,VALID,0,VALID,87.0175,VALID,0,VALID,23.8481,VALID,152,VALID,0,
2009-04-06, 01:26:04,VALID,1007.77,VALID,0,VALID,87.0175,VALID,0,VALID,23.8694,VALID,152,VALID,0,
2009-04-06, 01:27:04,VALID,1007.76,VALID,0,VALID,87.0175,VALID,0.105969,VALID,23.8286,VALID,152,VALID,0,
2009-04-06, 01:28:04,VALID,1007.73,VALID,0,VALID,87.048,VALID,0.105969,VALID,23.8481,VALID,152,VALID,0,
2009-04-06, 01:29:04,VALID,1007.7,VALID,0,VALID,87.0709,VALID,0,VALID,23.8304,VALID,152,VALID,0,
2009-04-06, 01:30:04,VALID,1007.66,VALID,0,VALID,87.1014,VALID,0,VALID,23.8499,VALID,152,VALID,0,
2009-04-06, 01:31:04,VALID,1007.63,VALID,0,VALID,87.0937,VALID,0,VALID,23.8499,VALID,152,VALID,0,
2009-04-06, 01:32:04,VALID,1007.58,VALID,0,VALID,87.109,VALID,0,VALID,23.8304,VALID,152,VALID,0,
2009-04-06, 01:33:04,VALID,1007.55,VALID,0,VALID,87.109,VALID,0,VALID,23.8304,VALID,152,VALID,0,
2009-04-06, 01:34:04,VALID,1007.53,VALID,0,VALID,87.1319,VALID,0,VALID,23.8499,VALID,152,VALID,0,
2009-04-06, 01:35:04,VALID,1007.51,VALID,0,VALID,87.1624,VALID,0,VALID,23.8304,VALID,151,VALID,0,
2009-04-06, 01:36:04,VALID,1007.48,VALID,0,VALID,87.1852,VALID,0,VALID,23.8304,VALID,151,VALID,0,
2009-04-06, 01:37:04,VALID,1007.49,VALID,0,VALID,87.1929,VALID,0,VALID,23.8304,VALID,126,VALID,0,
2009-04-06, 01:38:04,VALID,1007.44,VALID,0,VALID,87.2081,VALID,0,VALID,23.8304,VALID,126,VALID,0,
2009-04-06, 01:39:04,VALID,1007.42,VALID,0,VALID,87.2462,VALID,0,VALID,23.8109,VALID,126,VALID,0,
2009-04-06, 01:40:04,VALID,1007.39,VALID,0,VALID,87.231,VALID,0,VALID,23.8322,VALID,126,VALID,0,
2009-04-06, 01:41:04,VALID,1007.4,VALID,0,VALID,87.2767,VALID,0,VALID,23.8304,VALID,126,VALID,0,
2009-04-06, 01:42:04,VALID,1007.38,VALID,0,VALID,87.2767,VALID,0,VALID,23.8304,VALID,126,VALID,0,
2009-04-06, 01:43:04,VALID,1007.36,VALID,0,VALID,87.3073,VALID,0,VALID,23.8694,VALID,126,VALID,0,
2009-04-06, 01:44:04,VALID,1007.36,VALID,0,VALID,87.3225,VALID,0,VALID,23.8286,VALID,112,VALID,0,
2009-04-06, 01:45:04,VALID,1007.38,VALID,0,VALID,87.3225,VALID,0,VALID,23.8091,VALID,114,VALID,0,
2009-04-06, 01:46:04,VALID,1007.37,VALID,0,VALID,87.3301,VALID,0,VALID,23.7896,VALID,135,VALID,0,
2009-04-06, 01:47:04,VALID,1007.38,VALID,0,VALID,87.3301,VALID,0,VALID,23.7896,VALID,127,VALID,0,
2009-04-06, 01:48:04,VALID,1007.4,VALID,0,VALID,87.3454,VALID,0,VALID,23.7896,VALID,126,VALID,0,
2009-04-06, 01:49:04,VALID,1007.37,VALID,0,VALID,87.3454,VALID,0,VALID,23.7896,VALID,127,VALID,0,
2009-04-06, 01:50:04,VALID,1007.34,VALID,0,VALID,87.3454,VALID,0.105969,VALID,23.7896,VALID,150,VALID,0,
2009-04-06, 01:51:04,VALID,1007.36,VALID,0,VALID,87.3606,VALID,0,VALID,23.7701,VALID,150,VALID,0,
2009-04-06, 01:52:04,VALID,1007.32,VALID,0,VALID,87.3683,VALID,0.105969,VALID,23.7896,VALID,150,VALID,0,
2009-04-06, 01:53:04,VALID,1007.34,VALID,0,VALID,87.3911,VALID,0.105969,VALID,23.7896,VALID,150,VALID,0,
2009-04-06, 01:54:04,VALID,1007.32,VALID,0,VALID,87.4216,VALID,0.105969,VALID,23.7914,VALID,142,VALID,0,
2009-04-06, 01:55:04,VALID,1007.32,VALID,0,VALID,87.4216,VALID,0.105969,VALID,23.7683,VALID,142,VALID,0,
2009-04-06, 01:56:04,VALID,1007.3,VALID,0,VALID,87.4293,VALID,0.105969,VALID,23.7701,VALID,142,VALID,0,
2009-04-06, 01:57:04,VALID,1007.29,VALID,0,VALID,87.4445,VALID,0.105969,VALID,23.7701,VALID,142,VALID,0,
2009-04-06, 01:58:04,VALID,1007.27,VALID,0,VALID,87.4369,VALID,0,VALID,23.7701,VALID,142,VALID,0,
2009-04-06, 01:59:04,VALID,1007.29,VALID,0,VALID,87.4445,VALID,0,VALID,23.7507,VALID,142,VALID,0,
2009-04-06, 02:00:04,VALID,1007.28,VALID,0,VALID,87.4445,VALID,0,VALID,23.7701,VALID,143,VALID,0,
2009-04-06, 02:01:04,VALID,1007.3,VALID,0,VALID,87.4598,VALID,0.105969,VALID,23.7896,VALID,143,VALID,0,
2009-04-06, 02:02:04,VALID,1007.3,VALID,0,VALID,87.4598,VALID,0.105969,VALID,23.7896,VALID,143,VALID,0,
2009-04-06, 02:03:04,VALID,1007.28,VALID,0,VALID,87.4826,VALID,0.105969,VALID,23.8109,VALID,143,VALID,0,
2009-04-06, 02:04:04,VALID,1007.32,VALID,0,VALID,87.4826,VALID,0,VALID,23.7896,VALID,143,VALID,0,
2009-04-06, 02:05:04,VALID,1007.33,VALID,0,VALID,87.4903,VALID,0.105969,VALID,23.8304,VALID,142,VALID,0,
2009-04-06, 02:06:04,VALID,1007.34,VALID,0,VALID,87.4903,VALID,0,VALID,23.8109,VALID,142,VALID,0,
2009-04-06, 02:07:04,VALID,1007.35,VALID,0,VALID,87.5131,VALID,0.105969,VALID,23.8091,VALID,142,VALID,0,
2009-04-06, 02:08:04,VALID,1007.36,VALID,0,VALID,87.5208,VALID,0.105969,VALID,23.8286,VALID,138,VALID,0,
2009-04-06, 02:09:04,VALID,1007.35,VALID,0,VALID,87.5131,VALID,0.105969,VALID,23.8499,VALID,137,VALID,0,
2009-04-06, 02:10:04,VALID,1007.34,VALID,0,VALID,87.5055,VALID,0,VALID,23.8481,VALID,137,VALID,0,
2009-04-06, 02:11:04,VALID,1007.36,VALID,0,VALID,87.5284,VALID,0,VALID,23.8694,VALID,119,VALID,0,
2009-04-06, 02:12:04,VALID,1007.34,VALID,0,VALID,87.536,VALID,0,VALID,23.8694,VALID,119,VALID,0,
2009-04-06, 02:13:04,VALID,1007.35,VALID,0,VALID,87.536,VALID,0,VALID,23.8889,VALID,113,VALID,0,
2009-04-06, 02:14:04,VALID,1007.36,VALID,0,VALID,87.5284,VALID,0.105969,VALID,23.8481,VALID,113,VALID,0,
2009-04-06, 02:15:04,VALID,1007.35,VALID,0,VALID,87.536,VALID,0,VALID,23.8676,VALID,127,VALID,0,
2009-04-06, 02:16:04,VALID,1007.32,VALID,0,VALID,87.536,VALID,0,VALID,23.8871,VALID,120,VALID,0,
2009-04-06, 02:17:04,VALID,1007.3,VALID,0,VALID,87.5513,VALID,0,VALID,23.9084,VALID,119,VALID,0,
2009-04-06, 02:18:04,VALID,1007.3,VALID,0,VALID,87.5665,VALID,0,VALID,23.8676,VALID,125,VALID,0,
2009-04-06, 02:19:04,VALID,1007.3,VALID,0,VALID,87.5665,VALID,0.105969,VALID,23.8463,VALID,131,VALID,0.556641,
2009-04-06, 02:20:04,VALID,1007.29,VALID,0,VALID,87.5589,VALID,0,VALID,23.8676,VALID,122,VALID,0.347656,
2009-04-06, 02:21:04,VALID,1007.28,VALID,0,VALID,87.5665,VALID,0.105969,VALID,23.8871,VALID,119,VALID,0,
2009-04-06, 02:22:04,VALID,1007.3,VALID,0,VALID,87.5665,VALID,0.105969,VALID,23.8676,VALID,116,VALID,0,
2009-04-06, 02:23:04,VALID,1007.31,VALID,0,VALID,87.5665,VALID,0,VALID,23.8676,VALID,116,VALID,0,
2009-04-06, 02:24:04,VALID,1007.33,VALID,0,VALID,87.6047,VALID,0.105969,VALID,23.8871,VALID,89,VALID,0.599609,
2009-04-06, 02:25:04,VALID,1007.34,VALID,0,VALID,87.597,VALID,0.105969,VALID,23.8871,VALID,119,VALID,0.231641,
2009-04-06, 02:26:04,VALID,1007.33,VALID,0,VALID,87.5818,VALID,0,VALID,23.9278,VALID,134,VALID,0.177734,
2009-04-06, 02:27:04,VALID,1007.33,VALID,0,VALID,87.597,VALID,0.105969,VALID,23.926,VALID,134,VALID,0,
2009-04-06, 02:28:04,VALID,1007.34,VALID,0,VALID,87.597,VALID,0.105969,VALID,23.9065,VALID,134,VALID,0.416016,
2009-04-06, 02:29:04,VALID,1007.35,VALID,0,VALID,87.6047,VALID,0,VALID,23.9065,VALID,134,VALID,0,
2009-04-06, 02:30:04,VALID,1007.36,VALID,0,VALID,87.6428,VALID,0,VALID,23.9065,VALID,134,VALID,0.183594,
2009-04-06, 02:31:04,VALID,1007.35,VALID,0,VALID,87.6275,VALID,0,VALID,23.8871,VALID,134,VALID,0.0078125,
2009-04-06, 02:32:04,VALID,1007.34,VALID,0,VALID,87.6275,VALID,0,VALID,23.9065,VALID,134,VALID,0,
2009-04-06, 02:33:04,VALID,1007.33,VALID,0,VALID,87.6428,VALID,0.105969,VALID,23.8871,VALID,134,VALID,0,
2009-04-06, 02:34:04,VALID,1007.33,VALID,0,VALID,87.6428,VALID,0,VALID,23.9065,VALID,130,VALID,0,
2009-04-06, 02:35:04,VALID,1007.3,VALID,0,VALID,87.6352,VALID,0.105969,VALID,23.8871,VALID,129,VALID,0,
2009-04-06, 02:36:04,VALID,1007.3,VALID,0,VALID,87.658,VALID,0.105969,VALID,23.8871,VALID,129,VALID,0,
2009-04-06, 02:37:04,VALID,1007.3,VALID,0,VALID,87.658,VALID,0.105969,VALID,23.8676,VALID,127,VALID,0.466016,
2009-04-06, 02:38:04,VALID,1007.28,VALID,0,VALID,87.6657,VALID,0.105969,VALID,23.8676,VALID,127,VALID,0.191406,
2009-04-06, 02:39:04,VALID,1007.29,VALID,0,VALID,87.6657,VALID,0.105969,VALID,23.9065,VALID,105,VALID,0.389062,
2009-04-06, 02:40:04,VALID,1007.26,VALID,0,VALID,87.6885,VALID,0.105969,VALID,23.9065,VALID,109,VALID,0.481641,
2009-04-06, 02:41:04,VALID,1007.27,VALID,0,VALID,87.6733,VALID,0.105969,VALID,23.9065,VALID,100,VALID,1.02969,
2009-04-06, 02:42:04,VALID,1007.31,VALID,0,VALID,87.6885,VALID,0.105969,VALID,23.9065,VALID,100,VALID,0.961328,
2009-04-06, 02:43:04,VALID,1007.29,VALID,0,VALID,87.6962,VALID,0.105969,VALID,23.8676,VALID,102,VALID,0.91875,
2009-04-06, 02:44:04,VALID,1007.27,VALID,0,VALID,87.6885,VALID,0.105969,VALID,23.8676,VALID,99,VALID,0.756641,
2009-04-06, 02:45:04,VALID,1007.3,VALID,0,VALID,87.7114,VALID,0.105969,VALID,23.8676,VALID,113,VALID,0.613672,
2009-04-06, 02:46:04,VALID,1007.29,VALID,0,VALID,87.7114,VALID,0.105969,VALID,23.8676,VALID,105,VALID,0.650781,
2009-04-06, 02:47:04,VALID,1007.29,VALID,0,VALID,87.7114,VALID,0.105969,VALID,23.8676,VALID,101,VALID,0.490234,
2009-04-06, 02:48:04,VALID,1007.29,VALID,0,VALID,87.7343,VALID,0.105969,VALID,23.8676,VALID,100,VALID,0.464063,
2009-04-06, 02:49:04,VALID,1007.3,VALID,0,VALID,87.7343,VALID,0.211938,VALID,23.8658,VALID,93,VALID,0.531641,
2009-04-06, 02:50:04,VALID,1007.27,VALID,0,VALID,87.7419,VALID,0,VALID,23.8481,VALID,73,VALID,1.13906,
2009-04-06, 02:51:04,VALID,1007.29,VALID,0,VALID,87.719,VALID,0.105969,VALID,23.8481,VALID,73,VALID,0.951953,
2009-04-06, 02:52:04,VALID,1007.28,VALID,0,VALID,87.7495,VALID,0.105969,VALID,23.8268,VALID,71,VALID,0.965625,
2009-04-06, 02:53:04,VALID,1007.29,VALID,0,VALID,87.7495,VALID,0.105969,VALID,23.8676,VALID,78,VALID,0.498828,
2009-04-06, 02:54:04,VALID,1007.29,VALID,0,VALID,87.7572,VALID,0.105969,VALID,23.8694,VALID,78,VALID,0.382422,
2009-04-06, 02:55:04,VALID,1007.29,VALID,0,VALID,87.7572,VALID,0.105969,VALID,23.8481,VALID,53,VALID,0.675,
2009-04-06, 02:56:04,VALID,1007.3,VALID,0,VALID,87.7572,VALID,0.105969,VALID,23.8286,VALID,64,VALID,0.507422,
2009-04-06, 02:57:04,VALID,1007.31,VALID,0,VALID,87.7572,VALID,0.105969,VALID,23.8286,VALID,86,VALID,0.609375,
2009-04-06, 02:58:04,VALID,1007.33,VALID,0,VALID,87.7343,VALID,0.105969,VALID,23.8091,VALID,88,VALID,0.465625,
2009-04-06, 02:59:04,VALID,1007.32,VALID,0,VALID,87.7648,VALID,0,VALID,23.8286,VALID,87,VALID,0,
2009-04-06, 03:00:04,VALID,1007.36,VALID,0,VALID,87.7495,VALID,0.105969,VALID,23.8286,VALID,87,VALID,0,
2009-04-06, 03:01:04,VALID,1007.35,VALID,0,VALID,87.7648,VALID,0,VALID,23.8481,VALID,88,VALID,0,
2009-04-06, 03:02:04,VALID,1007.37,VALID,0,VALID,87.7648,VALID,0.105969,VALID,23.8676,VALID,88,VALID,0,
2009-04-06, 03:03:04,VALID,1007.42,VALID,0,VALID,87.78,VALID,0.105969,VALID,23.8481,VALID,88,VALID,0,
2009-04-06, 03:04:04,VALID,1007.41,VALID,0,VALID,87.7724,VALID,0.105969,VALID,23.8676,VALID,113,VALID,0,
2009-04-06, 03:05:04,VALID,1007.41,VALID,0,VALID,87.7877,VALID,0,VALID,23.8286,VALID,145,VALID,0,
2009-04-06, 03:06:04,VALID,1007.45,VALID,0,VALID,87.7877,VALID,0.105969,VALID,23.8481,VALID,146,VALID,0,
2009-04-06, 03:07:04,VALID,1007.44,VALID,0,VALID,87.7877,VALID,0.105969,VALID,23.8481,VALID,198,VALID,0.462891,
2009-04-06, 03:08:04,VALID,1007.45,VALID,0,VALID,87.7877,VALID,0.105969,VALID,23.8481,VALID,198,VALID,0.298438,
2009-04-06, 03:09:04,VALID,1007.46,VALID,0,VALID,87.7953,VALID,0.105969,VALID,23.8268,VALID,198,VALID,0.349609,
2009-04-06, 03:10:04,VALID,1007.48,VALID,0,VALID,87.7953,VALID,0.105969,VALID,23.8073,VALID,198,VALID,0.445313,
2009-04-06, 03:11:04,VALID,1007.51,VALID,0,VALID,87.8182,VALID,0.105969,VALID,23.8481,VALID,198,VALID,0.096875,
2009-04-06, 03:12:04,VALID,1007.53,VALID,0,VALID,87.8334,VALID,0.105969,VALID,23.8676,VALID,198,VALID,0.231641,
2009-04-06, 03:13:04,VALID,1007.54,VALID,0,VALID,87.8258,VALID,0.105969,VALID,23.8481,VALID,198,VALID,0.4,
2009-04-06, 03:14:04,VALID,1007.58,VALID,0,VALID,87.8334,VALID,0,VALID,23.8286,VALID,198,VALID,0.310937,
2009-04-06, 03:15:04,VALID,1007.61,VALID,0,VALID,87.8182,VALID,0.105969,VALID,23.8286,VALID,198,VALID,0,
2009-04-06, 03:16:04,VALID,1007.64,VALID,0,VALID,87.8182,VALID,0,VALID,23.8481,VALID,198,VALID,0.040625,
2009-04-06, 03:17:04,VALID,1007.67,VALID,0,VALID,87.8334,VALID,0,VALID,23.8676,VALID,198,VALID,0.0992187,
2009-04-06, 03:18:04,VALID,1007.68,VALID,0,VALID,87.8487,VALID,0,VALID,23.8676,VALID,198,VALID,0,
2009-04-06, 03:19:04,VALID,1007.69,VALID,0,VALID,87.8334,VALID,0.105969,VALID,23.8676,VALID,198,VALID,0,
2009-04-06, 03:20:04,VALID,1007.72,VALID,0,VALID,87.8487,VALID,0,VALID,23.8889,VALID,184,VALID,0,
2009-04-06, 03:21:04,VALID,1007.69,VALID,0,VALID,87.8487,VALID,0.105969,VALID,23.8481,VALID,185,VALID,0,
2009-04-06, 03:22:04,VALID,1007.69,VALID,0,VALID,87.8487,VALID,0,VALID,23.8694,VALID,185,VALID,0,
2009-04-06, 03:23:04,VALID,1007.68,VALID,0,VALID,87.8487,VALID,0,VALID,23.8676,VALID,173,VALID,0,
2009-04-06, 03:24:04,VALID,1007.68,VALID,0,VALID,87.8563,VALID,0,VALID,23.8889,VALID,170,VALID,0,
2009-04-06, 03:25:04,VALID,1007.7,VALID,0,VALID,87.8487,VALID,0,VALID,23.9084,VALID,170,VALID,0,
2009-04-06, 03:26:04,VALID,1007.7,VALID,0,VALID,87.8563,VALID,0,VALID,23.8871,VALID,165,VALID,0.691406,
2009-04-06, 03:27:04,VALID,1007.71,VALID,0,VALID,87.8639,VALID,0.105969,VALID,23.9084,VALID,153,VALID,0.448828,
2009-04-06, 03:28:04,VALID,1007.72,VALID,0,VALID,87.8411,VALID,0,VALID,23.9065,VALID,153,VALID,0.291016,
2009-04-06, 03:29:04,VALID,1007.72,VALID,0,VALID,87.8639,VALID,0,VALID,23.9084,VALID,144,VALID,0.795313,
2009-04-06, 03:30:04,VALID,1007.73,VALID,0,VALID,87.8716,VALID,0,VALID,23.9084,VALID,142,VALID,0.676562,
2009-04-06, 03:31:04,VALID,1007.73,VALID,0,VALID,87.8639,VALID,0,VALID,23.9278,VALID,141,VALID,0.565625,
2009-04-06, 03:32:04,VALID,1007.74,VALID,0,VALID,87.8563,VALID,0,VALID,23.9278,VALID,145,VALID,0.723047,
2009-04-06, 03:33:04,VALID,1007.72,VALID,0,VALID,87.8639,VALID,0,VALID,23.9278,VALID,135,VALID,0.684766,
2009-04-06, 03:34:04,VALID,1007.72,VALID,0,VALID,87.8792,VALID,0,VALID,23.9491,VALID,138,VALID,1.12305,
2009-04-06, 03:35:04,VALID,1007.71,VALID,0,VALID,87.8944,VALID,0,VALID,23.9473,VALID,143,VALID,0.286328,
2009-04-06, 03:36:04,VALID,1007.7,VALID,0,VALID,87.8639,VALID,0,VALID,23.9473,VALID,151,VALID,0.421484,
2009-04-06, 03:37:04,VALID,1007.69,VALID,0,VALID,87.8716,VALID,0,VALID,23.9473,VALID,150,VALID,0.654297,
2009-04-06, 03:38:04,VALID,1007.7,VALID,0,VALID,87.8639,VALID,0,VALID,23.9668,VALID,164,VALID,0.213281,
2009-04-06, 03:39:04,VALID,1007.68,VALID,0,VALID,87.8944,VALID,0,VALID,23.9668,VALID,190,VALID,0.819922,
2009-04-06, 03:40:04,VALID,1007.69,VALID,0,VALID,87.8792,VALID,0,VALID,23.9473,VALID,180,VALID,0.607422,
2009-04-06, 03:41:04,VALID,1007.67,VALID,0,VALID,87.8716,VALID,0,VALID,23.9473,VALID,187,VALID,0.619531,
2009-04-06, 03:42:04,VALID,1007.67,VALID,0,VALID,87.8868,VALID,0,VALID,23.9668,VALID,189,VALID,1.1168,
2009-04-06, 03:43:04,VALID,1007.67,VALID,0,VALID,87.8792,VALID,0,VALID,23.9473,VALID,172,VALID,0.907812,
2009-04-06, 03:44:04,VALID,1007.68,VALID,0,VALID,87.8792,VALID,0,VALID,23.9455,VALID,147,VALID,0.475391,
2009-04-06, 03:45:04,VALID,1007.69,VALID,0,VALID,87.8868,VALID,0,VALID,23.9455,VALID,143,VALID,0.771094,
2009-04-06, 03:46:04,VALID,1007.67,VALID,0,VALID,87.9021,VALID,0,VALID,23.9455,VALID,160,VALID,0.911328,
2009-04-06, 03:47:04,VALID,1007.64,VALID,0,VALID,87.8944,VALID,0.105969,VALID,23.9455,VALID,159,VALID,0.615234,
2009-04-06, 03:48:04,VALID,1007.66,VALID,0,VALID,87.9173,VALID,0.105969,VALID,23.9455,VALID,174,VALID,0.539453,
2009-04-06, 03:49:04,VALID,1007.64,VALID,0,VALID,87.9326,VALID,0.105969,VALID,23.9047,VALID,184,VALID,0.737891,